| time (UTC) | temp F | wind direction | speed MPH | gust MPH | rain 1hr in | rain 24hr in | rain mn in | humidity % | barometer mb |
| 20260508060049 | 56 | 6 | 3.0 | 15.0 | 0.00 | 0.10 | 0.00 | 76 | 1015.4 |
| 20260508054604 | 55 | 356 | 6.0 | 22.0 | 0.00 | 0.10 | 0.00 | 77 | 1015.5 |
| 20260508053037 | 55 | 1 | 10.0 | 19.0 | 0.00 | 0.10 | 0.00 | 80 | 1015.5 |
| 20260508051533 | 54 | 352 | 4.0 | 15.0 | 0.00 | 0.10 | 0.00 | 82 | 1015.4 |
| 20260508050035 | 53 | 346 | 1.0 | 11.0 | 0.00 | 0.10 | 0.00 | 83 | 1015.4 |
| 20260508044526 | 52 | 346 | 0.0 | 0.0 | 0.00 | 0.10 | 0.00 | 84 | 1015.3 |
| 20260508043027 | 52 | 346 | 0.0 | 0.0 | 0.00 | 0.10 | 0.00 | 84 | 1015.2 |
| 20260508041516 | 51 | 346 | 0.0 | 12.0 | 0.00 | 0.10 | 0.00 | 84 | 1015.1 |
| 20260508040013 | 51 | 346 | 0.0 | 10.0 | 0.00 | 0.10 | 0.00 | 84 | 1014.9 |
| 20260508034519 | 51 | 346 | 0.0 | 0.0 | 0.00 | 0.10 | 0.00 | 84 | 1014.9 |
| 20260508033009 | 51 | 346 | 0.0 | 1.0 | 0.00 | 0.10 | 0.00 | 84 | 1014.9 |
| 20260508031507 | 52 | 346 | 0.0 | 0.0 | 0.00 | 0.10 | 0.00 | 83 | 1014.7 |
| 20260508030003 | 52 | 346 | 0.0 | 0.0 | 0.00 | 0.10 | 0.00 | 83 | 1014.7 |
| 20260508024501 | 52 | 346 | 0.0 | 0.0 | 0.00 | 0.10 | 0.00 | 82 | 1014.5 |
| 20260508023101 | 52 | 346 | 0.0 | 0.0 | 0.00 | 0.10 | 0.00 | 82 | 1014.5 |
| 20260508021605 | 52 | 346 | 0.0 | 0.0 | 0.00 | 0.10 | 0.00 | 82 | 1014.5 |
| 20260508020057 | 53 | 346 | 0.0 | 0.0 | 0.00 | 0.10 | 0.00 | 82 | 1014.5 |
| 20260508014555 | 53 | 346 | 0.0 | 0.0 | 0.00 | 0.10 | 0.00 | 81 | 1014.4 |
| 20260508013053 | 53 | 346 | 2.0 | 12.0 | 0.00 | 0.10 | 0.00 | 80 | 1014.2 |
| 20260508011555 | 54 | 346 | 2.0 | 12.0 | 0.00 | 0.10 | 0.00 | 80 | 1014.1 |
| 20260508010050 | 54 | 346 | 0.0 | 0.0 | 0.00 | 0.10 | 0.00 | 80 | 1014.0 |
| 20260508004549 | 55 | 346 | 0.0 | 0.0 | 0.00 | 0.10 | 0.00 | 79 | 1014.0 |
| 20260508003048 | 55 | 346 | 3.0 | 16.0 | 0.00 | 0.10 | 0.00 | 79 | 1014.0 |
| 20260508001546 | 55 | 331 | 0.0 | 15.0 | 0.00 | 0.10 | 0.00 | 79 | 1013.9 |
| 20260508000059 | 55 | 304 | 3.0 | 13.0 | 0.00 | 0.10 | 0.00 | 80 | 1013.9 |
| 20260507234546 | 55 | 275 | 2.0 | 11.0 | 0.00 | 0.10 | 0.00 | 83 | 1013.9 |
| 20260507233040 | 55 | 272 | 0.0 | 0.0 | 0.00 | 0.10 | 0.00 | 85 | 1013.9 |
| 20260507231544 | 54 | 272 | 0.0 | 9.0 | 0.00 | 0.10 | 0.00 | 87 | 1014.0 |
| 20260507230038 | 54 | 267 | 0.0 | 5.0 | 0.00 | 0.10 | 0.00 | 88 | 1014.0 |
| 20260507224534 | 54 | 267 | 0.0 | 4.0 | 0.00 | 0.10 | 0.00 | 88 | 1013.9 |
| 20260507223034 | 54 | 267 | 0.0 | 0.0 | 0.00 | 0.10 | 0.00 | 88 | 1013.8 |
| 20260507221532 | 54 | 267 | 0.0 | 0.0 | 0.00 | 0.10 | 0.00 | 87 | 1013.8 |
| 20260507220031 | 54 | 267 | 0.0 | 0.0 | 0.00 | 0.10 | 0.00 | 88 | 1013.8 |
| 20260507214531 | 54 | 267 | 5.0 | 17.0 | 0.00 | 0.10 | 0.10 | 88 | 1013.9 |
| 20260507213037 | 54 | 267 | 0.0 | 17.0 | 0.00 | 0.10 | 0.10 | 89 | 1013.9 |
| 20260507211541 | 54 | 269 | 10.0 | 19.0 | 0.00 | 0.10 | 0.10 | 90 | 1013.9 |
| 20260507210028 | 54 | 240 | 10.0 | 22.0 | 0.01 | 0.10 | 0.10 | 90 | 1013.9 |
| 20260507204526 | 54 | 244 | 7.0 | 22.0 | 0.03 | 0.10 | 0.10 | 90 | 1013.9 |
| 20260507203025 | 54 | 226 | 9.0 | 28.0 | 0.03 | 0.10 | 0.10 | 90 | 1013.7 |
| 20260507201523 | 54 | 249 | 8.0 | 23.0 | 0.04 | 0.10 | 0.10 | 90 | 1013.8 |
| 20260507200020 | 54 | 250 | 18.0 | 32.0 | 0.03 | 0.09 | 0.09 | 89 | 1013.6 |
| 20260507194517 | 54 | 245 | 8.0 | 29.0 | 0.01 | 0.07 | 0.07 | 89 | 1013.5 |
| 20260507193018 | 55 | 259 | 13.0 | 28.0 | 0.01 | 0.07 | 0.07 | 89 | 1013.3 |
| 20260507191511 | 55 | 272 | 11.0 | 27.0 | 0.01 | 0.06 | 0.06 | 88 | 1013.1 |
| 20260507190010 | 55 | 251 | 5.0 | 18.0 | 0.01 | 0.06 | 0.06 | 88 | 1012.9 |
| 20260507184503 | 55 | 260 | 8.0 | 25.0 | 0.02 | 0.06 | 0.06 | 88 | 1012.5 |
| 20260507183002 | 55 | 240 | 10.0 | 21.0 | 0.04 | 0.06 | 0.06 | 88 | 1012.3 |
| 20260507181600 | 55 | 265 | 7.0 | 21.0 | 0.04 | 0.06 | 0.06 | 88 | 1012.3 |
| 20260507180107 | 56 | 254 | 14.0 | 26.0 | 0.04 | 0.05 | 0.05 | 87 | 1012.2 |
| 20260507174627 | 56 | 250 | 7.0 | 28.0 | 0.04 | 0.04 | 0.04 | 86 | 1012.3 |
| 20260507173052 | 57 | 261 | 13.0 | 27.0 | 0.02 | 0.02 | 0.02 | 84 | 1012.2 |
| 20260507171603 | 59 | 240 | 11.0 | 24.0 | 0.02 | 0.02 | 0.02 | 81 | 1011.9 |
| 20260507170046 | 60 | 235 | 1.0 | 14.0 | 0.01 | 0.01 | 0.01 | 76 | 1011.8 |
| 20260507164551 | 62 | 269 | 0.0 | 0.0 | 0.00 | 0.00 | 0.00 | 71 | 1011.7 |
| 20260507163043 | 62 | 271 | 8.0 | 23.0 | 0.00 | 0.00 | 0.00 | 66 | 1011.5 |
| 20260507161547 | 63 | 267 | 7.0 | 27.0 | 0.00 | 0.00 | 0.00 | 64 | 1011.1 |
| 20260507160108 | 63 | 270 | 15.0 | 33.0 | 0.00 | 0.00 | 0.00 | 61 | 1011.0 |
| 20260507154540 | 65 | 274 | 8.0 | 22.0 | 0.00 | 0.00 | 0.00 | 56 | 1010.7 |
| 20260507153039 | 65 | 257 | 5.0 | 20.0 | 0.00 | 0.00 | 0.00 | 55 | 1010.5 |
| 20260507151539 | 66 | 262 | 7.0 | 19.0 | 0.00 | 0.00 | 0.00 | 54 | 1010.5 |
| 20260507150039 | 68 | 240 | 3.0 | 14.0 | 0.00 | 0.00 | 0.00 | 51 | 1010.4 |
| 20260507144538 | 68 | 240 | 0.0 | 5.0 | 0.00 | 0.00 | 0.00 | 49 | 1010.4 |
| 20260507143037 | 69 | 240 | 1.0 | 12.0 | 0.00 | 0.00 | 0.00 | 50 | 1010.4 |
| 20260507141537 | 70 | 240 | 2.0 | 14.0 | 0.00 | 0.00 | 0.00 | 49 | 1010.5 |
| 20260507140044 | 69 | 196 | 3.0 | 15.0 | 0.00 | 0.00 | 0.00 | 51 | 1010.4 |
| 20260507134533 | 68 | 230 | 0.0 | 9.0 | 0.00 | 0.00 | 0.00 | 51 | 1010.5 |
| 20260507133034 | 68 | 269 | 4.0 | 19.0 | 0.00 | 0.00 | 0.00 | 51 | 1010.6 |
| 20260507131603 | 68 | 317 | 6.0 | 14.0 | 0.00 | 0.00 | 0.00 | 49 | 1010.7 |
| 20260507130031 | 68 | 340 | 0.0 | 7.0 | 0.00 | 0.00 | 0.00 | 49 | 1010.7 |
| 20260507124532 | 68 | 340 | 0.0 | 10.0 | 0.00 | 0.00 | 0.00 | 49 | 1010.8 |
| 20260507123040 | 69 | 340 | 0.0 | 5.0 | 0.00 | 0.00 | 0.00 | 48 | 1010.8 |
| 20260507121527 | 68 | 347 | 1.0 | 14.0 | 0.00 | 0.00 | 0.00 | 51 | 1010.8 |
| 20260507120030 | 67 | 354 | 5.0 | 19.0 | 0.00 | 0.00 | 0.00 | 51 | 1011.1 |
| 20260507114525 | 66 | 291 | 13.0 | 27.0 | 0.00 | 0.00 | 0.00 | 53 | 1011.0 |
| 20260507113054 | 66 | 316 | 11.0 | 27.0 | 0.00 | 0.00 | 0.00 | 52 | 1011.0 |
| 20260507111525 | 66 | 323 | 10.0 | 26.0 | 0.00 | 0.00 | 0.00 | 53 | 1011.1 |
| 20260507110019 | 65 | 350 | 6.0 | 19.0 | 0.00 | 0.00 | 0.00 | 53 | 1011.2 |
| 20260507104519 | 65 | 338 | 8.0 | 23.0 | 0.00 | 0.00 | 0.00 | 54 | 1011.4 |
| 20260507103015 | 64 | 343 | 12.0 | 30.0 | 0.00 | 0.00 | 0.00 | 54 | 1011.5 |
| 20260507101522 | 64 | 359 | 2.0 | 21.0 | 0.00 | 0.00 | 0.00 | 54 | 1011.6 |
| 20260507100027 | 64 | 359 | 4.0 | 20.0 | 0.00 | 0.00 | 0.00 | 53 | 1011.5 |
| 20260507094510 | 64 | 334 | 8.0 | 27.0 | 0.00 | 0.00 | 0.00 | 54 | 1011.5 |
| 20260507093008 | 64 | 336 | 6.0 | 22.0 | 0.00 | 0.00 | 0.00 | 55 | 1011.5 |
| 20260507091505 | 63 | 323 | 10.0 | 28.0 | 0.00 | 0.00 | 0.00 | 56 | 1011.4 |
| 20260507090006 | 63 | 351 | 1.0 | 16.0 | 0.00 | 0.00 | 0.00 | 57 | 1011.2 |
| 20260507084502 | 62 | 324 | 0.0 | 10.0 | 0.00 | 0.00 | 0.00 | 58 | 1011.0 |
| 20260507083059 | 62 | 327 | 1.0 | 18.0 | 0.00 | 0.00 | 0.00 | 57 | 1010.9 |
| 20260507081558 | 62 | 348 | 1.0 | 19.0 | 0.00 | 0.00 | 0.00 | 58 | 1010.5 |
| 20260507080057 | 62 | 312 | 15.0 | 31.0 | 0.00 | 0.00 | 0.00 | 58 | 1010.5 |
| 20260507074556 | 61 | 308 | 1.0 | 25.0 | 0.00 | 0.00 | 0.00 | 59 | 1010.7 |
| 20260507073058 | 61 | 294 | 3.0 | 17.0 | 0.00 | 0.00 | 0.00 | 61 | 1010.4 |
| 20260507071551 | 60 | 314 | 1.0 | 23.0 | 0.00 | 0.00 | 0.00 | 62 | 1010.1 |
| 20260507064547 | 59 | 323 | 15.0 | 32.0 | 0.00 | 0.00 | 0.00 | 63 | 1010.0 |
| 20260507063041 | 59 | 336 | 16.0 | 35.0 | 0.00 | 0.00 | 0.00 | 62 | 1010.1 |
| 20260507061540 | 59 | 334 | 4.0 | 23.0 | 0.00 | 0.00 | 0.00 | 63 | 1009.8 |